Regional Weather Roundup
Issued by NWS

Home | Current Version | Previous Version | Text Only | Print | Product List | Glossary On
Versions: 1 2 3 4 5 6 7 8 9 10 11 12 13 14 15 16 17 18 19 20 21 22 23 24 25 26 27 28 29 30 31 32 33 34 35 36 37 38 39 40 41 42 43 44 45 46 47 48 49 50
000
ASUS44 KLIX 231213
RWRLA
LOUISIANA WEATHER ROUNDUP
NATIONAL WEATHER SERVICE NEW ORLEANS LA
700 AM CDT THU MAR 23 2017

NOTE: "FAIR" INDICATES FEW OR NO CLOUDS BELOW 12,000 FEET WITH NO
      SIGNIFICANT WEATHER AND/OR OBSTRUCTIONS TO VISIBILITY.
      SKY/WX - SKY CONDITION AND SIGNIFICANT WEATHER.
      TMP - AIR TEMPERATURE.    DP   - DEWPOINT TEMPERATURE.
      RH  - RELATIVE HUMIDITY.  PRES - PRESSURE.
      HX  - HEAT INDEX.         WCI  - WIND CHILL INDEX.

*  THESE STATIONS ARE NOT NWS OR FAA STATIONS AND ARE NOT UNDER
   NWS QUALITY CONTROL.

LAZ040-048-061>063-065-066-069-231300-
SOUTHEAST LOUISIANA

CITY           SKY/WX    TMP DP  RH WIND       PRES   REMARKS
N.O. INTL ARPT CLEAR     65  63  93 NE5       30.17R
6HR MIN TEMP:  61; 6HR MAX TEMP:  66;

N.O. LAKEFRONT CLEAR     67  60  78 E10       30.18R
6HR MIN TEMP:  67; 6HR MAX TEMP:  71;

N.O. DOWNTOWN*   N/A     68  61  78 NE6       30.18R
6HR MIN TEMP:  68; 6HR MAX TEMP:  73;

RESERVE*       FOG       62  60  94 CALM      30.18R VSB 1/2
6HR MIN TEMP:  60; 6HR MAX TEMP:  66;

SLIDELL        CLEAR     60  54  80 NE3       30.18R
6HR MIN TEMP:  58; 6HR MAX TEMP:  65;

BATON ROUGE    CLEAR     59  56  89 CALM      30.18R
6HR MIN TEMP:  58; 6HR MAX TEMP:  62;

BOOTHVILLE     CLEAR     64  64 100 N5        30.17R FOG
6HR MIN TEMP:  64; 6HR MAX TEMP:  71;

BELLE CHASSE   PTCLDY    64  57  78 NE3       30.17R HAZE
BOGALUSA*      FAIR      56  52  87 N3        30.21R
6HR MIN TEMP:  56; 6HR MAX TEMP:  63;

GALLIANO*        N/A     62  60  92 N5        30.17R FOG
6HR MIN TEMP:  62; 6HR MAX TEMP:  65;

NEW ROADS*     FAIR      56  56  98 CALM      30.19R
6HR MIN TEMP:  56; 6HR MAX TEMP:  62;

GONZALES*      FAIR      60  59  99 CALM      30.17R FOG
6HR MIN TEMP:  60; 6HR MAX TEMP:  65;

HAMMOND*       CLEAR     59  54  82 CALM      30.19R
HOUMA*         FOG       63  63 100 CALM      30.17R VSB 1
PORT FOURCHON* SUNNY     68  64  88 N5        30.17R

$$

LAZ041-044-053-054-231300-
SOUTHWEST LOUISIANA

CITY           SKY/WX    TMP DP  RH WIND       PRES   REMARKS
LAKE CHARLES   FOG       56  56 100 CALM      30.16S VSB 1/4
6HR MIN TEMP:  56; 6HR MAX TEMP:  67; 6HR PCP: TRACE;

LAFAYETTE      LGT RAIN  67  66  97 NE5       30.18R
6HR MIN TEMP:  66; 6HR MAX TEMP:  69; 6HR PCP: TRACE;

PATTERSON      CLOUDY    65  65 100 N6        30.18R FOG
6HR MIN TEMP:  62; 6HR MAX TEMP:  65;

SALT POINT       N/A     64  64 100 CALM      30.16R
6HR MIN TEMP:  64; 6HR MAX TEMP:  70;

NEW IBERIA     PTCLDY    64  62  93 NE6       30.18R
6HR MIN TEMP:  58; 6HR MAX TEMP:  66; 6HR PCP:  0.01;

CHENAULT AIRPK FOG       56  56 100 CALM      30.17R VSB 1/2
6HR MIN TEMP:  56; 6HR MAX TEMP:  66;


$$

LAZ027-028-231300-
CENTRAL LOUISIANA

CITY           SKY/WX    TMP DP  RH WIND       PRES   REMARKS
FORT POLK      MOCLDY    64  63  97 CALM      30.16R
6HR MIN TEMP:  64; 6HR MAX TEMP:  67;

ALEXANDRIA INT MOCLDY    63  61  93 SW5       30.16R
6HR MIN TEMP:  61; 6HR MAX TEMP:  67;

ALEXANDRIA     CLOUDY    56  56 100 CALM      30.18R FOG
6HR MIN TEMP:  54; 6HR MAX TEMP:  61;


$$

LAZ001-002-231300-
NORTHWEST LOUISIANA

CITY           SKY/WX    TMP DP  RH WIND       PRES   REMARKS
SHREVEPORT     CLOUDY    61  56  83 SE5       30.14R
6HR MIN TEMP:  60; 6HR MAX TEMP:  66;

BARKSDALE AFB  MOCLDY    56  53  92 CALM      30.14R
6HR MIN TEMP:  56; 6HR MAX TEMP:  63;

DTN SHREVEPORT CLOUDY    60  53  77 SE5       30.14S
6HR MIN TEMP:  60; 6HR MAX TEMP:  66;


$$

LAZ014-016-231300-
NORTHEAST LOUISIANA

CITY           SKY/WX    TMP DP  RH WIND       PRES   REMARKS
MONROE         CLEAR     57  52  83 E3        30.20R
6HR MIN TEMP:  56; 6HR MAX TEMP:  63;

TALLULAH       CLEAR     59  49  69 SE9       30.20R
6HR MIN TEMP:  58; 6HR MAX TEMP:  63;


$$




USA.gov is the U.S. government's official web portal to all federal, state and local government web resources and services.